| time (UTC) | temp F | wind direction | speed MPH | gust MPH | rain 1hr in | rain 24hr in | rain mn in | humidity % | barometer mb |
| 20260508160026 | 65 | 240 | 3.0 | 11.0 | 0.00 | 0.00 | 0.00 | 45 | 1017.2 |
| 20260508154510 | 64 | 236 | 3.0 | 11.0 | 0.00 | 0.00 | 0.00 | 42 | 1017.3 |
| 20260508153014 | 65 | 217 | 3.0 | 9.0 | 0.00 | 0.00 | 0.00 | 46 | 1017.2 |
| 20260508151519 | 63 | 264 | 4.0 | 9.0 | 0.00 | 0.00 | 0.00 | 41 | 1017.3 |
| 20260508150013 | 63 | 231 | 3.0 | 8.0 | 0.00 | 0.00 | 0.00 | 46 | 1017.2 |
| 20260508144507 | 62 | 269 | 7.0 | 11.0 | 0.00 | 0.00 | 0.00 | 42 | 1017.3 |
| 20260508143015 | 61 | 138 | 2.0 | 8.0 | 0.00 | 0.00 | 0.00 | 48 | 1017.4 |
| 20260508141521 | 59 | 260 | 4.0 | 9.0 | 0.00 | 0.00 | 0.00 | 50 | 1017.4 |
| 20260508140026 | 59 | 309 | 1.0 | 4.0 | 0.00 | 0.00 | 0.00 | 64 | 1017.4 |
| 20260508134508 | 55 | 291 | 0.0 | 5.0 | 0.00 | 0.00 | 0.00 | 69 | 1017.4 |
| 20260508133016 | 52 | 273 | 2.0 | 4.0 | 0.00 | 0.00 | 0.00 | 70 | 1017.6 |
| 20260508131517 | 51 | 269 | 1.0 | 4.0 | 0.00 | 0.00 | 0.00 | 74 | 1017.7 |
| 20260508130020 | 49 | 274 | 0.0 | 2.0 | 0.00 | 0.00 | 0.00 | 85 | 1017.8 |
| 20260508124524 | 46 | 252 | 0.0 | 0.0 | 0.00 | 0.00 | 0.00 | 93 | 1017.8 |
| 20260508123007 | 43 | 252 | 0.0 | 1.0 | 0.00 | 0.00 | 0.00 | 96 | 1017.7 |
| 20260508121512 | 41 | 252 | 0.0 | 0.0 | 0.00 | 0.00 | 0.00 | 96 | 1017.8 |
| 20260508120015 | 39 | 252 | 0.0 | 0.0 | 0.00 | 0.00 | 0.00 | 96 | 1017.8 |
| 20260508114519 | 36 | 252 | 0.0 | 0.0 | 0.00 | 0.00 | 0.00 | 96 | 1017.6 |
| 20260508113024 | 34 | 252 | 0.0 | 0.0 | 0.00 | 0.00 | 0.00 | 95 | 1017.8 |
| 20260508111510 | 34 | 252 | 0.0 | 0.0 | 0.00 | 0.00 | 0.00 | 95 | 1017.7 |
| 20260508110014 | 34 | 252 | 0.0 | 0.0 | 0.00 | 0.00 | 0.00 | 94 | 1017.6 |
| 20260508104517 | 34 | 252 | 0.0 | 0.0 | 0.00 | 0.00 | 0.00 | 94 | 1017.3 |
| 20260508103022 | 34 | 252 | 0.0 | 0.0 | 0.00 | 0.00 | 0.00 | 94 | 1017.2 |
| 20260508101526 | 34 | 252 | 0.0 | 0.0 | 0.00 | 0.00 | 0.00 | 94 | 1017.1 |
| 20260508100034 | 34 | 252 | 0.0 | 0.0 | 0.00 | 0.00 | 0.00 | 94 | 1017.0 |
| 20260508094519 | 34 | 252 | 0.0 | 0.0 | 0.00 | 0.00 | 0.00 | 94 | 1016.9 |
| 20260508093020 | 35 | 252 | 0.0 | 0.0 | 0.00 | 0.00 | 0.00 | 94 | 1016.9 |
| 20260508091523 | 35 | 252 | 0.0 | 0.0 | 0.00 | 0.00 | 0.00 | 94 | 1016.9 |
| 20260508090031 | 35 | 252 | 0.0 | 0.0 | 0.00 | 0.00 | 0.00 | 94 | 1016.8 |
| 20260508084526 | 35 | 252 | 0.0 | 0.0 | 0.00 | 0.00 | 0.00 | 94 | 1016.7 |
| 20260508083016 | 35 | 252 | 0.0 | 0.0 | 0.00 | 0.00 | 0.00 | 94 | 1016.6 |
| 20260508081526 | 36 | 252 | 0.0 | 0.0 | 0.00 | 0.00 | 0.00 | 93 | 1016.7 |
| 20260508080040 | 36 | 252 | 0.0 | 0.0 | 0.00 | 0.00 | 0.00 | 93 | 1016.6 |
| 20260508074527 | 36 | 252 | 0.0 | 0.0 | 0.00 | 0.00 | 0.00 | 93 | 1016.6 |
| 20260508073030 | 36 | 252 | 0.0 | 0.0 | 0.00 | 0.00 | 0.00 | 93 | 1016.6 |
| 20260508071520 | 36 | 252 | 0.0 | 0.0 | 0.00 | 0.00 | 0.00 | 93 | 1016.6 |
| 20260508070025 | 36 | 252 | 0.0 | 0.0 | 0.00 | 0.00 | 0.00 | 93 | 1016.5 |
| 20260508064522 | 37 | 252 | 0.0 | 0.0 | 0.00 | 0.00 | 0.00 | 93 | 1016.6 |
| 20260508063010 | 37 | 252 | 0.0 | 0.0 | 0.00 | 0.00 | 0.00 | 92 | 1016.7 |
| 20260508061517 | 37 | 252 | 0.0 | 0.0 | 0.00 | 0.00 | 0.00 | 92 | 1016.9 |
| 20260508060009 | 38 | 252 | 0.0 | 0.0 | 0.00 | 0.00 | 0.00 | 92 | 1016.9 |
| 20260508054506 | 38 | 252 | 0.0 | 0.0 | 0.00 | 0.00 | 0.00 | 91 | 1017.0 |
| 20260508053007 | 38 | 252 | 0.0 | 0.0 | 0.00 | 0.00 | 0.00 | 91 | 1016.7 |
| 20260508051513 | 39 | 252 | 0.0 | 0.0 | 0.00 | 0.00 | 0.00 | 91 | 1016.7 |
| 20260508050010 | 39 | 252 | 0.0 | 0.0 | 0.00 | 0.00 | 0.00 | 90 | 1016.6 |
| 20260508044512 | 39 | 252 | 0.0 | 0.0 | 0.00 | 0.00 | 0.00 | 90 | 1016.7 |
| 20260508043005 | 40 | 252 | 0.0 | 0.0 | 0.00 | 0.00 | 0.00 | 89 | 1016.8 |
| 20260508041511 | 40 | 252 | 0.0 | 0.0 | 0.00 | 0.00 | 0.00 | 88 | 1016.8 |
| 20260508040033 | 41 | 252 | 0.0 | 0.0 | 0.00 | 0.00 | 0.00 | 87 | 1016.8 |
| 20260508034511 | 41 | 252 | 0.0 | 0.0 | 0.00 | 0.00 | 0.00 | 86 | 1016.8 |
| 20260508033017 | 42 | 252 | 0.0 | 0.0 | 0.00 | 0.00 | 0.00 | 85 | 1016.8 |
| 20260508031513 | 43 | 252 | 0.0 | 0.0 | 0.00 | 0.00 | 0.00 | 83 | 1016.9 |
| 20260508030010 | 43 | 252 | 0.0 | 1.0 | 0.00 | 0.00 | 0.00 | 81 | 1016.7 |
| 20260508024522 | 44 | 252 | 0.0 | 2.0 | 0.00 | 0.00 | 0.00 | 79 | 1016.6 |
| 20260508023015 | 45 | 252 | 1.0 | 2.0 | 0.00 | 0.00 | 0.00 | 78 | 1016.3 |
| 20260508021515 | 45 | 252 | 0.0 | 0.0 | 0.00 | 0.00 | 0.00 | 78 | 1016.1 |
| 20260508020012 | 46 | 252 | 0.0 | 0.0 | 0.00 | 0.00 | 0.00 | 74 | 1016.0 |
| 20260508014513 | 47 | 252 | 0.0 | 2.0 | 0.00 | 0.00 | 0.00 | 72 | 1015.6 |
| 20260508013017 | 49 | 252 | 0.0 | 0.0 | 0.00 | 0.00 | 0.00 | 68 | 1015.4 |
| 20260508011518 | 50 | 252 | 0.0 | 0.0 | 0.00 | 0.00 | 0.00 | 64 | 1015.2 |
| 20260508010020 | 52 | 252 | 0.0 | 2.0 | 0.00 | 0.00 | 0.00 | 60 | 1015.0 |
| 20260508004510 | 54 | 252 | 0.0 | 2.0 | 0.00 | 0.00 | 0.00 | 57 | 1014.9 |
| 20260508003014 | 56 | 252 | 0.0 | 1.0 | 0.00 | 0.00 | 0.00 | 54 | 1014.7 |
| 20260508001519 | 58 | 252 | 0.0 | 2.0 | 0.00 | 0.00 | 0.00 | 47 | 1014.6 |
| 20260508000021 | 59 | 276 | 1.0 | 3.0 | 0.00 | 0.00 | 0.00 | 42 | 1014.4 |
| 20260507234540 | 60 | 137 | 1.0 | 3.0 | 0.00 | 0.00 | 0.00 | 41 | 1014.3 |
| 20260507233018 | 62 | 324 | 0.0 | 6.0 | 0.00 | 0.00 | 0.00 | 34 | 1014.1 |
| 20260507231515 | 63 | 86 | 0.0 | 9.0 | 0.00 | 0.00 | 0.00 | 33 | 1013.9 |
| 20260507230024 | 64 | 309 | 3.0 | 7.0 | 0.00 | 0.00 | 0.00 | 31 | 1013.9 |
| 20260507224522 | 64 | 341 | 3.0 | 9.0 | 0.00 | 0.00 | 0.00 | 32 | 1014.0 |
| 20260507223020 | 65 | 42 | 3.0 | 9.0 | 0.00 | 0.00 | 0.00 | 32 | 1013.9 |
| 20260507221531 | 65 | 262 | 3.0 | 10.0 | 0.00 | 0.00 | 0.00 | 32 | 1013.8 |
| 20260507220021 | 65 | 234 | 4.0 | 11.0 | 0.00 | 0.00 | 0.00 | 34 | 1013.8 |
| 20260507214524 | 65 | 245 | 3.0 | 11.0 | 0.00 | 0.00 | 0.00 | 33 | 1013.7 |
| 20260507213028 | 66 | 311 | 3.0 | 11.0 | 0.00 | 0.00 | 0.00 | 33 | 1013.6 |
| 20260507211528 | 66 | 272 | 4.0 | 8.0 | 0.00 | 0.00 | 0.00 | 34 | 1013.1 |
| 20260507210025 | 66 | 201 | 2.0 | 13.0 | 0.00 | 0.00 | 0.00 | 36 | 1013.3 |
| 20260507204522 | 65 | 255 | 1.0 | 12.0 | 0.00 | 0.00 | 0.00 | 38 | 1013.0 |
| 20260507203026 | 66 | 217 | 3.0 | 10.0 | 0.00 | 0.00 | 0.00 | 37 | 1012.9 |
| 20260507201525 | 66 | 104 | 4.0 | 10.0 | 0.00 | 0.00 | 0.00 | 34 | 1012.9 |
| 20260507200025 | 66 | 257 | 2.0 | 9.0 | 0.00 | 0.00 | 0.00 | 37 | 1013.0 |
| 20260507194531 | 66 | 236 | 5.0 | 10.0 | 0.00 | 0.00 | 0.00 | 35 | 1013.3 |
| 20260507193024 | 65 | 254 | 1.0 | 8.0 | 0.00 | 0.00 | 0.00 | 39 | 1013.2 |
| 20260507191526 | 66 | 180 | 3.0 | 9.0 | 0.00 | 0.00 | 0.00 | 41 | 1013.3 |
| 20260507190040 | 64 | 327 | 3.0 | 15.0 | 0.00 | 0.00 | 0.00 | 39 | 1013.6 |
| 20260507184503 | 63 | 244 | 4.0 | 9.0 | 0.00 | 0.00 | 0.00 | 42 | 1013.8 |
| 20260507183006 | 62 | 246 | 3.0 | 11.0 | 0.00 | 0.00 | 0.00 | 44 | 1013.8 |
| 20260507181506 | 63 | 247 | 2.0 | 7.0 | 0.00 | 0.00 | 0.00 | 42 | 1014.0 |
| 20260507180014 | 63 | 147 | 2.0 | 12.0 | 0.00 | 0.00 | 0.00 | 54 | 1014.0 |
| 20260507174517 | 61 | 291 | 2.0 | 8.0 | 0.00 | 0.00 | 0.00 | 44 | 1014.1 |
| 20260507173016 | 62 | 336 | 3.0 | 8.0 | 0.00 | 0.00 | 0.00 | 47 | 1014.5 |
| 20260507171505 | 62 | 295 | 2.0 | 15.0 | 0.00 | 0.00 | 0.00 | 47 | 1014.3 |
| 20260507170021 | 63 | 72 | 4.0 | 11.0 | 0.00 | 0.00 | 0.00 | 48 | 1014.7 |
| 20260507164521 | 63 | 345 | 4.0 | 8.0 | 0.00 | 0.00 | 0.00 | 48 | 1014.7 |
| 20260507163020 | 61 | 272 | 1.0 | 10.0 | 0.00 | 0.00 | 0.00 | 50 | 1014.8 |
| 20260507161506 | 60 | 290 | 4.0 | 10.0 | 0.00 | 0.00 | 0.00 | 47 | 1015.0 |